sat.trackr.live / text

‹ back to catalog

IRIDE-MS1-EAGLET 2-13

NORAD 68450 · 2026-067AL

PAYLOAD ACTIVE UNKNOWN

§ Identity

Operator
Country
IT
Launch date
2026-03-30
Launch site
AFWTR
Launch vehicle
Mass (kg)
RCS (m²)

External: N2YO · Heavens-Above · Gunter

§ Orbital elements

Epoch: 2026-09-20T03:54:59.138208Z

Period
94.74 min
Inclination
97.4647°
Eccentricity
0.0004258
Mean motion
15.19873251 rev/d
Perigee alt
503.3 km
Apogee alt
509.2 km
Semi-major
6,884.4 km
B*
2.4731e-4
RAAN
220.5018°
Arg perigee
68.5186°
Mean anomaly
291.6502°
Rev number
2,636

§ Raw data

IRIDE-MS1-EAGLET 2-131 68450U 26067AL  26263.16318447  .00005240  00000+0  24731-3 0  99972 68450  97.4647 220.5018 0004258  68.5186 291.6502 15.19873251 26367

JSON: /api/v1/satellites/68450 · /tle

For live sub-satellite position, see the globe view (requires WebGL).

§ Visibility from observer

Set your observer location to see the next 7 days of passes ≥ 10°. The values pass through the URL so the page stays shareable.

No JS? Fill the form by hand. The geolocation button needs JavaScript.